User: anonymous   Login
Location: Allos
(44.2333°N, 6.6333°E)
Time: 07:34:57
(UTC+00:00)
Language:

deb Agena D - Orbit

View from above orbital plane
View from above orbital plane
View from above satellite
View from above satellite

Ground track
Ground track

The orbit data is extracted from the following two-line orbital elements,

1 04861U 70025ER  21171.44975969  .00003703  00000-0  34550-3 0  9991
2 04861  99.7012 222.6705 0013420 291.8477  68.1310 14.95016093643405
Epoch (UTC): 20 June 2021 10:47:39
Eccentricity: 0.0013420
inclination: 99.7012°
perigee height: 573 km
apogee height: 591 km
right ascension of ascending node: 222.6705°
argument of perigee: 291.8477°
revolutions per day: 14.95016093
mean anomaly at epoch: 68.1310°
orbit number at epoch: 64340

The dashed part of the orbit path shows where the satellite is in the earth's shadow,  

DLR